Weather in Atlanta

United States     33°44′55″N   84°23′32″W
temp.,
°C
wind,
m/s
gust,
m/s
humid.,
%
clouds,
%
prec.,
mm/h
press.,
hPa
HPBL,
m
28 may, sat
sat2823:00+20nnw38660 0.0 1013464
02:00+18nnw38770 0.0 1013381
05:00+16nw27820 0.0 1013322
08:00+17nw35790 0.0 1014284
11:00+22nw33520 0.0 10141111
14:00+27nw33390 0.0 10131649
17:00+27nw32390 0.0 10121743
20:00+25nw24490 0.0 1012266
29 may, sun
sun2923:00+21nnw11600 0.0 101434
02:00+20nne11660 0.0 101416
05:00+19ene23720 0.0 101466
08:00+20e24690 0.0 1016192
11:00+26ese33440 0.0 10161350
14:00+30s34310 0.0 10152637
17:00+30sse44358 0.0 10141818
20:00+27ese47441 0.0 1014562
30 may, mon
mon3023:00+24ese395423 0.0 1016316
02:00+23se411633 0.0 1017516
05:00+21ese39720 0.0 1017362
08:00+22ese36745 0.0 1019307
11:00+27ese46520 0.0 10191172
14:00+32se4734100 0.0 10173219
17:00+26ese7106095 0.1 1018570
20:00+25ese256216 0.6 1018192
31 may, tue
tue3123:00+23ese26722 0.1 1019172
02:00+21sse267781 0.1 1019211
05:00+19ese148286 0.0 1019182
08:00+21ese23759 0.0 1020227
11:00+27ese34540 0.0 10201074
14:00+31se343853 0.0 10192459
17:00+29se454583 0.1 1018793
20:00+27ese245233 0.1 1017191
1 june, wed
wed123:00+25ese12610 0.0 101945
02:00+23se12690 0.1 101841
05:00+21s25860 0.7 1018179
08:00+22w12791 0.7 1020154
11:00+30nw01470 0.0 1019931
14:00+33sse113598 0.1 10162708
17:00+30ene114180 0.1 1014328
20:00+29wnw344653 0.1 1014372